Domov               UVHVVR             MKGP            O straneh              
ZDRAVSTVENO VARSTVO RASTLIN
  MREŽA AGROMET. POSTAJ
 ► PROGNOSTIČNA OBVESTILA
AGROMETEOROLOŠKI PODATKI -
ARSO
OBVLADOVANJE TVEGANJ ZARADI
NEUGODNIH VREMENSKIH RAZMER
  ► NARAVNE NESREČE
  ► SUŠA/MOČA
  ► NAMAKANJE
  ► ŽLED (gozdarstvo)
KARTOGRAFSKI PRIKAZI
SPLETNE POVEZAVE
PROJEKTI IN PUBLIKACIJE

AGROMETEOROLOŠKA MREŽA: VREMENSKE POSTAJE IN FENOLOŠKA OPAZOVANJA

Pregled podatkov za lokacijo KIS 2, meteorološka postaja 27260

Pregled senzorjev na lokaciji

ID Ime Zadnja
vrednost
Datum
zadnje
spremembe
Tip
senzorja
1396 Relativna vlaga 2 m (% RH) 33,32 % RH 19.10.2017 15:45 Generic 0 - 100 %
1397 Omočenost lista (U) 0 U 19.10.2017 15:45 A730WET
1398 Padavine 0.2 mm (mm) 0 mm 19.10.2017 15:45 Generic
3177 Temperatura 2 m ( °C) 22,52 °C 19.10.2017 15:45 Generic -40 - +60 °C

Pregled podatkov zadnjih 24 ur

Zap.
št.
Datum in čas KIS 2
Omočenost
lista
Padavine
0.2
mm
Relativna
vlaga
2
m
Temperatura
2
m
0 19.10.2017 15:00 0 0 33,32 22,52
1 19.10.2017 14:30 0 0 32,9 22,65
2 19.10.2017 14:00 0 0 33,07 22,55
3 19.10.2017 13:30 0 0 34,07 22,42
4 19.10.2017 13:00 0 0 36,98 22,02
5 19.10.2017 12:30 0 0 40,89 21,47
6 19.10.2017 12:00 0 0 46,85 20,55
7 19.10.2017 11:30 0 0 51,33 18,18
8 19.10.2017 11:00 0 0 55,5 16,16
9 19.10.2017 10:30 0 0 57,55 15,04
10 19.10.2017 10:00 0 0 60,11 13,99
11 19.10.2017 09:30 1,73 0 64,42 12,19
12 19.10.2017 09:00 10 0 67,83 11,1
13 19.10.2017 08:30 10 0 73,64 9,67
14 19.10.2017 08:00 10 0 85,18 7,13
15 19.10.2017 07:30 10 0 89,2 6,24
16 19.10.2017 07:00 10 0 91,32 5,69
17 19.10.2017 06:30 10 0 93,12 5,45
18 19.10.2017 06:00 10 0 92,66 5,36
19 19.10.2017 05:30 10 0 91,53 5,8
20 19.10.2017 05:00 10 0 90,54 6,08
21 19.10.2017 04:30 10 0 91,17 6,15
22 19.10.2017 04:00 10 0 90,8 6,36
23 19.10.2017 03:30 9,1 0 90,5 6,59
24 19.10.2017 03:00 8,67 0 88,61 7,25
25 19.10.2017 02:30 8,07 0 86,8 7,78
26 19.10.2017 02:00 7,07 0 84,56 8,59
27 19.10.2017 01:30 8,47 0 82,21 10,11
28 19.10.2017 01:00 9,07 0 80,96 11,96
29 19.10.2017 00:30 10 0 79,95 12,48
30 19.10.2017 00:00 8,27 0 80,2 12,4
31 18.10.2017 23:30 6,47 0 79,26 12,85
32 18.10.2017 23:00 1 0 76,43 13,41
33 18.10.2017 22:30 2,6 0 76,54 13,02
34 18.10.2017 22:00 0,47 0 74,85 13,74
35 18.10.2017 21:30 1 0 75,18 14,01
36 18.10.2017 21:00 2,67 0 74,46 13,9
37 18.10.2017 20:30 10 0 74,41 14,05
38 18.10.2017 20:00 9,47 0 77,24 13,44
39 18.10.2017 19:30 1 0 71,98 14,71
40 18.10.2017 19:00 0 0 66,39 15,85
41 18.10.2017 18:30 0 0 62,07 16,77
42 18.10.2017 18:00 0 0 59,12 17,1
43 18.10.2017 17:30 0 0 54,79 17,8
44 18.10.2017 17:00 0 0 49,74 18,57
45 18.10.2017 16:30 0 0 46,02 19,69
© 2011 Ministrstvo za kmetijstvo, gozdarstvo in prehrano. Vse pravice pridržane.